| time (UTC) | temp F | wind direction | speed knots | gust knots | rain 1hr in | rain 24hr in | rain mn in | humidity % | barometer mb |
| 20260506171104 | 54 | 286 | 0.9 | 2.6 | 0.00 | 0.00 | 0.00 | 62 | 1015.8 |
| 20260506170604 | 55 | 296 | 0.0 | 2.6 | 0.00 | 0.00 | 0.00 | 60 | 1015.8 |
| 20260506170105 | 55 | 297 | 0.9 | 4.3 | 0.00 | 0.00 | 0.00 | 60 | 1015.8 |
| 20260506165604 | 55 | 328 | 0.0 | 2.6 | 0.00 | 0.00 | 0.00 | 60 | 1015.7 |
| 20260506165105 | 55 | 275 | 0.9 | 2.6 | 0.00 | 0.00 | 0.00 | 58 | 1015.6 |
| 20260506164604 | 55 | 255 | 0.0 | 2.6 | 0.00 | 0.00 | 0.00 | 59 | 1015.7 |
| 20260506164104 | 55 | 263 | 0.0 | 2.6 | 0.00 | 0.00 | 0.00 | 58 | 1015.7 |
| 20260506163605 | 54 | 255 | 0.9 | 2.6 | 0.00 | 0.00 | 0.00 | 58 | 1015.7 |
| 20260506163105 | 54 | 327 | 0.9 | 2.6 | 0.00 | 0.00 | 0.00 | 55 | 1015.7 |
| 20260506162605 | 54 | 262 | 0.9 | 5.2 | 0.00 | 0.00 | 0.00 | 54 | 1015.7 |
| 20260506162104 | 54 | 276 | 1.7 | 7.0 | 0.00 | 0.00 | 0.00 | 55 | 1015.7 |
| 20260506161604 | 55 | 186 | 0.9 | 5.2 | 0.00 | 0.00 | 0.00 | 56 | 1015.7 |
| 20260506161104 | 55 | 266 | 0.9 | 6.1 | 0.00 | 0.00 | 0.00 | 55 | 1015.6 |
| 20260506160605 | 56 | 276 | 1.7 | 4.3 | 0.00 | 0.00 | 0.00 | 54 | 1015.5 |
| 20260506155604 | 56 | 281 | 0.9 | 5.2 | 0.00 | 0.00 | 0.00 | 57 | 1015.6 |
| 20260506155105 | 56 | 217 | 0.0 | 2.6 | 0.00 | 0.00 | 0.00 | 56 | 1015.6 |
| 20260506154605 | 56 | 247 | 0.9 | 1.7 | 0.00 | 0.00 | 0.00 | 54 | 1015.6 |
| 20260506153105 | 55 | 256 | 0.0 | 2.6 | 0.00 | 0.00 | 0.00 | 55 | 1015.7 |
| 20260506152604 | 55 | 221 | 0.0 | 1.7 | 0.00 | 0.00 | 0.00 | 56 | 1015.8 |
| 20260506152105 | 55 | 258 | 0.9 | 4.3 | 0.00 | 0.00 | 0.00 | 55 | 1015.9 |
| 20260506151602 | 55 | 237 | 0.9 | 2.6 | 0.00 | 0.00 | 0.00 | 54 | 1015.9 |
| 20260506151105 | 55 | 296 | 0.9 | 2.6 | 0.00 | 0.00 | 0.00 | 55 | 1016.0 |
| 20260506150105 | 56 | 212 | 0.9 | 1.7 | 0.00 | 0.00 | 0.00 | 55 | 1015.9 |
| 20260506145605 | 56 | 270 | 0.9 | 5.2 | 0.00 | 0.00 | 0.00 | 53 | 1016.0 |
| 20260506145108 | 56 | 264 | 1.7 | 6.1 | 0.00 | 0.00 | 0.00 | 53 | 1015.9 |
| 20260506144605 | 56 | 310 | 0.9 | 5.2 | 0.00 | 0.00 | 0.00 | 55 | 1015.9 |
| 20260506144105 | 55 | 271 | 0.9 | 2.6 | 0.00 | 0.00 | 0.00 | 53 | 1015.9 |
| 20260506143605 | 55 | 252 | 0.9 | 2.6 | 0.00 | 0.00 | 0.00 | 53 | 1015.9 |
| 20260506142106 | 55 | 282 | 0.9 | 2.6 | 0.00 | 0.00 | 0.00 | 53 | 1016.0 |
| 20260506141604 | 56 | 247 | 0.9 | 5.2 | 0.00 | 0.00 | 0.00 | 53 | 1016.0 |
| 20260506141104 | 56 | 260 | 0.9 | 5.2 | 0.00 | 0.00 | 0.00 | 53 | 1016.0 |
| 20260506140605 | 56 | 225 | 0.0 | 1.7 | 0.00 | 0.00 | 0.00 | 52 | 1016.0 |
| 20260506140105 | 56 | 258 | 1.7 | 4.3 | 0.00 | 0.00 | 0.00 | 53 | 1016.0 |
| 20260506135605 | 55 | 273 | 0.0 | 0.9 | 0.00 | 0.00 | 0.00 | 53 | 1016.1 |
| 20260506135104 | 55 | 278 | 0.0 | 5.2 | 0.00 | 0.00 | 0.00 | 53 | 1016.1 |
| 20260506134605 | 56 | 268 | 0.9 | 7.0 | 0.00 | 0.00 | 0.00 | 53 | 1016.2 |
| 20260506134105 | 56 | 220 | 0.9 | 1.7 | 0.00 | 0.00 | 0.00 | 56 | 1016.2 |
| 20260506133605 | 55 | 238 | 0.0 | 2.6 | 0.00 | 0.00 | 0.00 | 55 | 1016.2 |
| 20260506133105 | 55 | 217 | 0.9 | 5.2 | 0.00 | 0.00 | 0.00 | 54 | 1016.2 |
| 20260506132605 | 56 | 259 | 0.9 | 2.6 | 0.00 | 0.00 | 0.00 | 53 | 1016.2 |
| 20260506132105 | 56 | 245 | 0.9 | 4.3 | 0.00 | 0.00 | 0.00 | 56 | 1016.1 |
| 20260506131605 | 55 | 93 | 0.0 | 1.7 | 0.00 | 0.00 | 0.00 | 57 | 1016.2 |
| 20260506131104 | 55 | 262 | 0.9 | 4.3 | 0.00 | 0.00 | 0.00 | 58 | 1016.2 |
| 20260506130605 | 55 | 245 | 0.9 | 2.6 | 0.00 | 0.00 | 0.00 | 56 | 1016.3 |
| 20260506130105 | 55 | 299 | 0.9 | 6.1 | 0.00 | 0.00 | 0.00 | 57 | 1016.3 |
| 20260506125605 | 55 | 216 | 0.9 | 4.3 | 0.00 | 0.00 | 0.00 | 55 | 1016.3 |
| 20260506124605 | 57 | 246 | 0.9 | 4.3 | 0.00 | 0.00 | 0.00 | 55 | 1016.3 |
| 20260506124105 | 57 | 280 | 0.9 | 7.0 | 0.00 | 0.00 | 0.00 | 56 | 1016.2 |
| 20260506123605 | 57 | 226 | 0.9 | 5.2 | 0.00 | 0.00 | 0.00 | 57 | 1016.3 |
| 20260506123104 | 56 | 231 | 0.9 | 7.8 | 0.00 | 0.00 | 0.00 | 56 | 1016.3 |
| 20260506122105 | 55 | 237 | 0.9 | 4.3 | 0.00 | 0.00 | 0.00 | 58 | 1016.3 |
| 20260506121104 | 57 | 251 | 0.9 | 4.3 | 0.00 | 0.00 | 0.00 | 55 | 1016.4 |
| 20260506120605 | 57 | 297 | 1.7 | 5.2 | 0.00 | 0.00 | 0.00 | 55 | 1016.4 |
| 20260506120106 | 56 | 258 | 0.9 | 2.6 | 0.00 | 0.00 | 0.00 | 57 | 1016.4 |
| 20260506115605 | 56 | 2 | 0.9 | 4.3 | 0.00 | 0.00 | 0.00 | 56 | 1016.5 |
| 20260506115105 | 55 | 272 | 0.9 | 4.3 | 0.00 | 0.00 | 0.00 | 57 | 1016.6 |
| 20260506114605 | 55 | 249 | 0.9 | 4.3 | 0.00 | 0.00 | 0.00 | 60 | 1016.6 |
| 20260506114105 | 54 | 270 | 0.9 | 2.6 | 0.00 | 0.00 | 0.00 | 60 | 1016.6 |
| 20260506113605 | 55 | 221 | 0.9 | 4.3 | 0.00 | 0.00 | 0.00 | 61 | 1016.6 |
| 20260506113108 | 55 | 265 | 1.7 | 6.1 | 0.00 | 0.00 | 0.00 | 61 | 1016.5 |
| 20260506112605 | 55 | 279 | 0.9 | 7.0 | 0.00 | 0.00 | 0.00 | 62 | 1016.7 |
| 20260506112105 | 55 | 255 | 0.9 | 2.6 | 0.00 | 0.00 | 0.00 | 61 | 1016.6 |
| 20260506111606 | 54 | 263 | 0.9 | 4.3 | 0.00 | 0.00 | 0.00 | 63 | 1016.7 |
| 20260506111106 | 54 | 250 | 0.9 | 2.6 | 0.00 | 0.00 | 0.00 | 63 | 1016.8 |
| 20260506110604 | 54 | 244 | 0.0 | 2.6 | 0.00 | 0.00 | 0.00 | 63 | 1016.7 |
| 20260506110106 | 54 | 273 | 1.7 | 5.2 | 0.00 | 0.00 | 0.00 | 62 | 1016.7 |
| 20260506105105 | 54 | 286 | 1.7 | 2.6 | 0.00 | 0.00 | 0.00 | 62 | 1016.8 |
| 20260506104605 | 54 | 12 | 0.9 | 4.3 | 0.00 | 0.00 | 0.00 | 63 | 1016.8 |
| 20260506104108 | 54 | 295 | 0.9 | 1.7 | 0.00 | 0.00 | 0.00 | 62 | 1016.8 |
| 20260506103604 | 53 | 248 | 0.9 | 5.2 | 0.00 | 0.00 | 0.00 | 63 | 1016.8 |
| 20260506103105 | 53 | 258 | 0.9 | 5.2 | 0.00 | 0.00 | 0.00 | 65 | 1016.8 |
| 20260506102605 | 52 | 256 | 0.9 | 2.6 | 0.00 | 0.00 | 0.00 | 67 | 1016.8 |
| 20260506102105 | 52 | 259 | 0.9 | 4.3 | 0.00 | 0.00 | 0.00 | 64 | 1016.8 |
| 20260506101605 | 52 | 280 | 0.9 | 2.6 | 0.00 | 0.00 | 0.00 | 65 | 1016.9 |
| 20260506101105 | 53 | 273 | 0.9 | 7.0 | 0.00 | 0.00 | 0.00 | 65 | 1016.8 |
| 20260506100605 | 53 | 277 | 0.0 | 1.7 | 0.00 | 0.00 | 0.00 | 65 | 1016.8 |
| 20260506100105 | 52 | 269 | 0.0 | 1.7 | 0.00 | 0.00 | 0.00 | 66 | 1016.7 |
| 20260506095605 | 52 | 275 | 1.7 | 4.3 | 0.00 | 0.00 | 0.00 | 66 | 1016.8 |
| 20260506095105 | 51 | 228 | 0.9 | 4.3 | 0.00 | 0.00 | 0.00 | 67 | 1016.8 |
| 20260506094605 | 51 | 284 | 0.9 | 4.3 | 0.00 | 0.00 | 0.00 | 67 | 1016.7 |
| 20260506094105 | 51 | 288 | 0.9 | 6.1 | 0.00 | 0.00 | 0.00 | 67 | 1016.7 |
| 20260506093605 | 51 | 246 | 1.7 | 5.2 | 0.00 | 0.00 | 0.00 | 67 | 1016.7 |
| 20260506093105 | 51 | 241 | 0.9 | 2.6 | 0.00 | 0.00 | 0.00 | 69 | 1016.7 |
| 20260506092605 | 50 | 257 | 0.9 | 5.2 | 0.00 | 0.00 | 0.00 | 70 | 1016.7 |
| 20260506092105 | 50 | 228 | 0.9 | 2.6 | 0.00 | 0.00 | 0.00 | 71 | 1016.7 |
| 20260506091605 | 49 | 294 | 0.9 | 4.3 | 0.00 | 0.00 | 0.00 | 70 | 1016.7 |
| 20260506091105 | 49 | 9 | 0.9 | 5.2 | 0.00 | 0.00 | 0.00 | 71 | 1016.7 |
| 20260506090605 | 49 | 280 | 0.9 | 5.2 | 0.00 | 0.00 | 0.00 | 72 | 1016.7 |
| 20260506090106 | 49 | 291 | 0.9 | 2.6 | 0.00 | 0.00 | 0.00 | 73 | 1016.7 |
| 20260506085605 | 48 | 285 | 0.9 | 2.6 | 0.00 | 0.00 | 0.00 | 73 | 1016.7 |
| 20260506084605 | 48 | 287 | 0.9 | 5.2 | 0.00 | 0.00 | 0.00 | 74 | 1016.7 |
| 20260506084105 | 47 | 209 | 0.0 | 2.6 | 0.00 | 0.00 | 0.00 | 75 | 1016.7 |
| 20260506083606 | 47 | 263 | 0.9 | 2.6 | 0.00 | 0.00 | 0.00 | 76 | 1016.7 |
| 20260506082606 | 46 | 284 | 0.9 | 2.6 | 0.00 | 0.00 | 0.00 | 76 | 1016.7 |
| 20260506082106 | 46 | 254 | 0.0 | 4.3 | 0.00 | 0.00 | 0.00 | 76 | 1016.8 |
| 20260506081106 | 46 | 259 | 0.0 | 2.6 | 0.00 | 0.00 | 0.00 | 77 | 1016.8 |
| 20260506080605 | 45 | 246 | 0.9 | 2.6 | 0.00 | 0.00 | 0.00 | 77 | 1016.8 |
| 20260506080106 | 45 | 276 | 0.0 | 2.6 | 0.00 | 0.00 | 0.00 | 76 | 1016.8 |
| 20260506072605 | 45 | 265 | 0.0 | 0.9 | 0.00 | 0.00 | 0.00 | 78 | 1016.9 |
| 20260506072105 | 45 | 269 | 0.9 | 2.6 | 0.00 | 0.00 | 0.00 | 78 | 1016.9 |
| 20260506071605 | 44 | 307 | 0.0 | 1.7 | 0.00 | 0.00 | 0.00 | 78 | 1016.8 |
| 20260506071105 | 44 | 246 | 0.0 | 2.6 | 0.00 | 0.00 | 0.00 | 78 | 1016.8 |
| 20260506070606 | 44 | 270 | 0.0 | 4.3 | 0.00 | 0.00 | 0.00 | 78 | 1016.8 |
| 20260506070106 | 44 | 251 | 0.9 | 5.2 | 0.00 | 0.00 | 0.00 | 78 | 1016.8 |
| 20260506062105 | 44 | 252 | 0.9 | 5.2 | 0.00 | 0.00 | 0.00 | 79 | 1016.7 |
| 20260506061605 | 44 | 272 | 0.9 | 4.3 | 0.00 | 0.00 | 0.00 | 79 | 1016.6 |
| 20260506061106 | 44 | 263 | 0.9 | 2.6 | 0.00 | 0.00 | 0.00 | 79 | 1016.6 |
| 20260506060605 | 44 | 257 | 0.9 | 2.6 | 0.00 | 0.00 | 0.00 | 80 | 1016.6 |
| 20260506060106 | 44 | 189 | 0.9 | 1.7 | 0.00 | 0.00 | 0.00 | 80 | 1016.7 |
| 20260506051105 | 44 | 270 | 0.0 | 2.6 | 0.00 | 0.00 | 0.00 | 82 | 1016.3 |
| 20260506050605 | 44 | 248 | 0.0 | 2.6 | 0.00 | 0.00 | 0.00 | 82 | 1016.3 |
| 20260506050106 | 44 | 261 | 0.0 | 2.6 | 0.00 | 0.00 | 0.00 | 82 | 1016.3 |
| 20260506045106 | 44 | 254 | 0.0 | 1.7 | 0.00 | 0.00 | 0.00 | 82 | 1016.2 |
| 20260506044605 | 44 | 286 | 0.0 | 1.7 | 0.00 | 0.00 | 0.00 | 82 | 1016.3 |
| 20260506044105 | 44 | 281 | 0.9 | 5.2 | 0.00 | 0.00 | 0.00 | 82 | 1016.2 |
| 20260506043605 | 44 | 235 | 0.9 | 4.3 | 0.00 | 0.00 | 0.00 | 82 | 1016.3 |
| 20260506043106 | 44 | 262 | 0.0 | 1.7 | 0.00 | 0.00 | 0.00 | 82 | 1016.2 |
| 20260506042606 | 44 | 306 | 0.0 | 2.6 | 0.00 | 0.00 | 0.00 | 82 | 1016.2 |
| 20260506042106 | 44 | 266 | 0.0 | 1.7 | 0.00 | 0.00 | 0.00 | 81 | 1016.2 |
| 20260506041606 | 44 | 282 | 0.9 | 2.6 | 0.00 | 0.00 | 0.00 | 81 | 1016.2 |
| 20260506041105 | 44 | 276 | 0.9 | 2.6 | 0.00 | 0.00 | 0.00 | 81 | 1016.2 |
| 20260506040106 | 44 | 241 | 0.0 | 1.7 | 0.00 | 0.00 | 0.00 | 81 | 1016.3 |
| 20260506035106 | 45 | 250 | 0.0 | 0.9 | 0.00 | 0.00 | 0.00 | 80 | 1016.2 |
| 20260506034605 | 45 | 253 | 0.9 | 2.6 | 0.00 | 0.00 | 0.00 | 80 | 1016.3 |
| 20260506034106 | 45 | 262 | 0.0 | 1.7 | 0.00 | 0.00 | 0.00 | 80 | 1016.3 |
| 20260506033106 | 45 | 286 | 0.9 | 2.6 | 0.00 | 0.00 | 0.00 | 79 | 1016.3 |
| 20260506032606 | 45 | 281 | 0.0 | 2.6 | 0.00 | 0.00 | 0.00 | 79 | 1016.4 |
| 20260506032106 | 45 | 258 | 0.0 | 1.7 | 0.00 | 0.00 | 0.00 | 80 | 1016.4 |
| 20260506031606 | 45 | 283 | 0.0 | 1.7 | 0.00 | 0.00 | 0.00 | 79 | 1016.4 |
| 20260506030106 | 45 | 225 | 0.0 | 1.7 | 0.00 | 0.00 | 0.00 | 79 | 1016.5 |
| 20260506025606 | 45 | 241 | 0.0 | 2.6 | 0.00 | 0.00 | 0.00 | 79 | 1016.5 |
| 20260506024606 | 45 | 274 | 0.0 | 1.7 | 0.00 | 0.00 | 0.00 | 78 | 1016.5 |
| 20260506024106 | 45 | 262 | 0.0 | 2.6 | 0.00 | 0.00 | 0.00 | 79 | 1016.4 |
| 20260506023605 | 45 | 243 | 0.0 | 2.6 | 0.00 | 0.00 | 0.00 | 79 | 1016.5 |
| 20260506023106 | 45 | 254 | 0.0 | 0.9 | 0.00 | 0.00 | 0.00 | 79 | 1016.4 |
| 20260506022606 | 45 | 227 | 0.0 | 4.3 | 0.00 | 0.00 | 0.00 | 78 | 1016.4 |
| 20260506022106 | 45 | 265 | 0.9 | 2.6 | 0.00 | 0.00 | 0.00 | 78 | 1016.5 |
| 20260506021606 | 45 | 281 | 0.9 | 2.6 | 0.00 | 0.00 | 0.00 | 79 | 1016.5 |
| 20260506021105 | 45 | 281 | 0.9 | 4.3 | 0.00 | 0.00 | 0.00 | 78 | 1016.5 |
| 20260506020606 | 46 | 270 | 0.0 | 0.9 | 0.00 | 0.00 | 0.00 | 79 | 1016.5 |
| 20260506020105 | 46 | 248 | 0.0 | 0.9 | 0.00 | 0.00 | 0.00 | 79 | 1016.4 |
| 20260506015605 | 46 | 288 | 0.0 | 0.9 | 0.00 | 0.00 | 0.00 | 79 | 1016.5 |
| 20260506014605 | 46 | 284 | 0.9 | 2.6 | 0.00 | 0.00 | 0.00 | 79 | 1016.5 |
| 20260506014105 | 46 | 262 | 0.0 | 1.7 | 0.00 | 0.00 | 0.00 | 78 | 1016.5 |
| 20260506013606 | 46 | 252 | 0.0 | 1.7 | 0.00 | 0.00 | 0.00 | 78 | 1016.6 |
| 20260506013105 | 46 | 271 | 0.9 | 2.6 | 0.00 | 0.00 | 0.00 | 78 | 1016.6 |
| 20260506012606 | 46 | 256 | 0.0 | 1.7 | 0.00 | 0.00 | 0.00 | 78 | 1016.6 |
| 20260506012106 | 46 | 282 | 0.0 | 1.7 | 0.00 | 0.00 | 0.00 | 78 | 1016.7 |
| 20260506011106 | 46 | 222 | 0.9 | 5.2 | 0.00 | 0.00 | 0.00 | 78 | 1016.7 |
| 20260506010606 | 46 | 298 | 0.9 | 5.2 | 0.00 | 0.00 | 0.00 | 79 | 1016.7 |
| 20260506010106 | 46 | 224 | 0.0 | 2.6 | 0.00 | 0.00 | 0.00 | 80 | 1016.8 |
| 20260506005606 | 46 | 248 | 0.0 | 0.9 | 0.00 | 0.00 | 0.00 | 80 | 1016.8 |
| 20260506005106 | 47 | 286 | 0.0 | 2.6 | 0.00 | 0.00 | 0.00 | 80 | 1016.7 |
| 20260506004606 | 47 | 295 | 0.0 | 2.6 | 0.00 | 0.00 | 0.00 | 80 | 1016.7 |
| 20260506004106 | 47 | 257 | 0.0 | 4.3 | 0.00 | 0.00 | 0.00 | 80 | 1016.6 |
| 20260506003606 | 47 | 195 | 0.0 | 4.3 | 0.00 | 0.00 | 0.00 | 80 | 1016.7 |
| 20260506002606 | 47 | 287 | 0.9 | 6.1 | 0.00 | 0.00 | 0.00 | 80 | 1016.7 |
| 20260506002106 | 47 | 262 | 0.9 | 2.6 | 0.00 | 0.00 | 0.00 | 80 | 1016.7 |
| 20260506001606 | 47 | 314 | 0.0 | 2.6 | 0.00 | 0.00 | 0.00 | 80 | 1016.7 |
| 20260506001106 | 47 | 257 | 0.0 | 1.7 | 0.00 | 0.00 | 0.00 | 79 | 1016.7 |
| 20260506000606 | 47 | 290 | 0.0 | 1.7 | 0.00 | 0.00 | 0.00 | 79 | 1016.6 |
| 20260505235606 | 48 | 260 | 0.9 | 4.3 | 0.00 | 0.00 | 0.00 | 79 | 1016.5 |
| 20260505235106 | 48 | 168 | 0.9 | 2.6 | 0.00 | 0.00 | 0.00 | 79 | 1016.6 |
| 20260505234606 | 48 | 272 | 0.9 | 2.6 | 0.00 | 0.00 | 0.00 | 79 | 1016.6 |
| 20260505234106 | 48 | 287 | 0.9 | 4.3 | 0.00 | 0.00 | 0.00 | 80 | 1016.5 |
| 20260505233606 | 48 | 259 | 0.9 | 4.3 | 0.00 | 0.00 | 0.00 | 79 | 1016.6 |
| 20260505232606 | 48 | 312 | 0.9 | 2.6 | 0.00 | 0.00 | 0.00 | 79 | 1016.5 |
| 20260505231106 | 48 | 275 | 0.9 | 7.0 | 0.00 | 0.00 | 0.00 | 79 | 1016.7 |
| 20260505230107 | 49 | 240 | 0.0 | 2.6 | 0.00 | 0.00 | 0.00 | 78 | 1016.6 |
| 20260505225606 | 49 | 260 | 0.9 | 2.6 | 0.00 | 0.00 | 0.00 | 78 | 1016.5 |
| 20260505224105 | 49 | 241 | 0.0 | 1.7 | 0.00 | 0.00 | 0.00 | 77 | 1016.5 |
| 20260505223105 | 49 | 287 | 2.6 | 7.8 | 0.00 | 0.00 | 0.00 | 77 | 1016.4 |
| 20260505222605 | 49 | 262 | 1.7 | 5.2 | 0.00 | 0.00 | 0.00 | 77 | 1016.4 |
| 20260505222104 | 49 | 226 | 0.0 | 4.3 | 0.00 | 0.00 | 0.00 | 78 | 1016.4 |
| 20260505221604 | 49 | 23 | 0.9 | 4.3 | 0.00 | 0.00 | 0.00 | 79 | 1016.4 |
| 20260505221105 | 50 | 292 | 0.9 | 5.2 | 0.00 | 0.00 | 0.00 | 79 | 1016.4 |
| 20260505220605 | 50 | 280 | 0.9 | 5.2 | 0.00 | 0.00 | 0.00 | 80 | 1016.4 |
| 20260505220105 | 50 | 249 | 0.9 | 5.2 | 0.00 | 0.00 | 0.00 | 81 | 1016.3 |
| 20260505215605 | 50 | 273 | 0.9 | 2.6 | 0.00 | 0.00 | 0.00 | 81 | 1016.3 |
| 20260505215105 | 50 | 318 | 0.9 | 6.1 | 0.00 | 0.00 | 0.00 | 81 | 1016.2 |
| 20260505214105 | 50 | 280 | 0.0 | 2.6 | 0.00 | 0.00 | 0.00 | 81 | 1016.2 |
| 20260505213605 | 51 | 272 | 1.7 | 5.2 | 0.00 | 0.00 | 0.00 | 81 | 1016.2 |
| 20260505213105 | 51 | 278 | 0.9 | 4.3 | 0.00 | 0.00 | 0.00 | 81 | 1016.2 |
| 20260505212605 | 51 | 258 | 0.0 | 2.6 | 0.00 | 0.00 | 0.00 | 81 | 1016.2 |
| 20260505212105 | 51 | 282 | 0.9 | 4.3 | 0.00 | 0.00 | 0.00 | 81 | 1016.2 |
| 20260505211605 | 51 | 300 | 0.0 | 1.7 | 0.00 | 0.00 | 0.00 | 80 | 1016.2 |
| 20260505211104 | 51 | 265 | 0.0 | 0.9 | 0.00 | 0.00 | 0.00 | 80 | 1016.3 |
| 20260505210604 | 51 | 298 | 0.9 | 4.3 | 0.00 | 0.00 | 0.00 | 79 | 1016.3 |
| 20260505210105 | 51 | 282 | 1.7 | 4.3 | 0.00 | 0.00 | 0.00 | 79 | 1016.2 |
| 20260505205604 | 51 | 281 | 1.7 | 8.7 | 0.00 | 0.00 | 0.00 | 79 | 1016.1 |
| 20260505205104 | 51 | 247 | 0.9 | 6.1 | 0.00 | 0.00 | 0.00 | 79 | 1016.1 |
| 20260505204605 | 51 | 274 | 0.9 | 2.6 | 0.00 | 0.00 | 0.00 | 79 | 1016.1 |
| 20260505203604 | 51 | 248 | 0.0 | 0.9 | 0.00 | 0.00 | 0.00 | 78 | 1016.0 |
| 20260505203105 | 51 | 204 | 0.0 | 2.6 | 0.00 | 0.00 | 0.00 | 78 | 1016.0 |
| 20260505202605 | 51 | 252 | 0.0 | 0.9 | 0.00 | 0.00 | 0.00 | 78 | 1016.0 |
| 20260505202104 | 51 | 206 | 0.0 | 1.7 | 0.00 | 0.00 | 0.00 | 77 | 1016.0 |
| 20260505201604 | 51 | 271 | 0.0 | 0.9 | 0.00 | 0.00 | 0.00 | 77 | 1016.1 |
| 20260505200603 | 52 | 170 | 0.0 | 0.9 | 0.00 | 0.00 | 0.00 | 77 | 1016.0 |
| 20260505200105 | 52 | 257 | 0.0 | 2.6 | 0.00 | 0.00 | 0.00 | 77 | 1016.0 |
| 20260505195604 | 52 | 185 | 0.9 | 2.6 | 0.00 | 0.00 | 0.00 | 77 | 1016.0 |
| 20260505194604 | 52 | 263 | 0.0 | 2.6 | 0.00 | 0.00 | 0.00 | 77 | 1015.9 |
| 20260505194104 | 52 | 263 | 0.9 | 4.3 | 0.00 | 0.00 | 0.00 | 77 | 1015.8 |
| 20260505193604 | 52 | 260 | 0.9 | 4.3 | 0.00 | 0.00 | 0.00 | 77 | 1015.8 |
| 20260505193104 | 52 | 206 | 0.0 | 2.6 | 0.00 | 0.00 | 0.00 | 77 | 1015.8 |
| 20260505192604 | 52 | 234 | 0.0 | 1.7 | 0.00 | 0.00 | 0.00 | 77 | 1015.7 |
| 20260505192104 | 52 | 214 | 0.0 | 0.9 | 0.00 | 0.00 | 0.00 | 77 | 1015.6 |
| 20260505191604 | 52 | 251 | 0.0 | 2.6 | 0.00 | 0.00 | 0.00 | 77 | 1015.6 |
| 20260505191104 | 52 | 210 | 0.9 | 2.6 | 0.00 | 0.00 | 0.00 | 76 | 1015.6 |
| 20260505190604 | 53 | 197 | 0.0 | 1.7 | 0.00 | 0.00 | 0.00 | 76 | 1015.6 |
| 20260505190105 | 53 | 218 | 0.0 | 2.6 | 0.00 | 0.00 | 0.00 | 76 | 1015.5 |
| 20260505185604 | 53 | 244 | 0.0 | 1.7 | 0.00 | 0.00 | 0.00 | 75 | 1015.6 |
| 20260505185104 | 53 | 188 | 0.0 | 0.9 | 0.00 | 0.00 | 0.00 | 75 | 1015.5 |
| 20260505184103 | 53 | 217 | 0.0 | 2.6 | 0.00 | 0.00 | 0.00 | 74 | 1015.5 |
| 20260505183104 | 53 | 206 | 0.0 | 1.7 | 0.00 | 0.00 | 0.00 | 74 | 1015.6 |
| 20260505182605 | 53 | 249 | 0.9 | 2.6 | 0.00 | 0.00 | 0.00 | 73 | 1015.5 |
| 20260505182104 | 53 | 168 | 0.9 | 5.2 | 0.00 | 0.00 | 0.00 | 73 | 1015.5 |
| 20260505181604 | 54 | 214 | 0.9 | 2.6 | 0.00 | 0.00 | 0.00 | 72 | 1015.4 |
| 20260505181104 | 54 | 276 | 0.0 | 4.3 | 0.00 | 0.00 | 0.00 | 72 | 1015.4 |
| 20260505180604 | 54 | 270 | 0.9 | 2.6 | 0.00 | 0.00 | 0.00 | 72 | 1015.4 |
| 20260505180105 | 54 | 210 | 0.0 | 2.6 | 0.00 | 0.00 | 0.00 | 72 | 1015.4 |
| 20260505175604 | 55 | 228 | 0.9 | 2.6 | 0.00 | 0.00 | 0.00 | 72 | 1015.5 |
| 20260505175103 | 55 | 197 | 1.7 | 5.2 | 0.00 | 0.00 | 0.00 | 72 | 1015.3 |
| 20260505174605 | 55 | 196 | 0.9 | 6.1 | 0.00 | 0.00 | 0.00 | 72 | 1015.3 |
| 20260505174105 | 55 | 178 | 0.0 | 2.6 | 0.00 | 0.00 | 0.00 | 70 | 1015.4 |
| 20260505173605 | 55 | 205 | 1.7 | 7.0 | 0.00 | 0.00 | 0.00 | 69 | 1015.4 |
| 20260505173105 | 55 | 237 | 0.9 | 2.6 | 0.00 | 0.00 | 0.00 | 69 | 1015.3 |
| 20260505172605 | 55 | 168 | 0.0 | 2.6 | 0.00 | 0.00 | 0.00 | 69 | 1015.4 |
| 20260505172104 | 55 | 232 | 0.9 | 5.2 | 0.00 | 0.00 | 0.00 | 69 | 1015.3 |
| 20260505171605 | 55 | 224 | 0.9 | 2.6 | 0.00 | 0.00 | 0.00 | 71 | 1015.3 |